Location: Molveno
(46.1500°N, 10.9667°E)
Time: 17:00:22
(UTC+00:00)

Cosmos 1500 Rocket - Pass Details

Date: 05 July 2020
Orbit: 603 x 632 km, 82.5° (Epoch: 11 August)

Event Time Altitude Azimuth Distance (km) Brightness Sun altitude
Exits shadow 23:44:49 57° 206° (SSW) 738 3.5 -21.0°
Maximum altitude 23:45:41 79° 279° (W) 638 3.5 -21.0°
Drops below altitude 10° 23:50:06 10° 7° (N) 1,991 7.4 -20.9°
Sets 23:52:20 0° 8° (N) 2,897 8.6 -20.8°
